Overview Statistics Trail Chart Weather Telemetry Raw packets
 

This is the latest recevied weather packets stored in our database for station/object KQ7A. If no packets are shown the sender has not sent any weather packets the latest 10 day(s).

<< 3 4 5 6 7 8 9 >>
Time Temp. Humidity Pressure Rain* Wind** Luminosity Snow
1788655988 20° C 35% 1016 hPa 0 mm - 31 W/m² -
1788655686 20° C 33% 1015.9 hPa 0 mm - 32 W/m² -
1788655381 20° C 35% 1015.9 hPa 0 mm - 32 W/m² -
1788655076 20° C 36% 1015.9 hPa 0 mm - 34 W/m² -
1788654772 20.56° C 33% 1015.5 hPa 0 mm - 35 W/m² -
1788654466 21.11° C 33% 1016.2 hPa 0 mm - 38 W/m² -
1788654161 21.11° C 32% 1015.9 hPa 0 mm - 52 W/m² -
1788653857 21.67° C 32% 1016 hPa 0 mm - 280 W/m² -
1788653551 21.67° C 32% 1015.9 hPa 0 mm - 296 W/m² -
1788653247 21.67° C 32% 1015.9 hPa 0 mm - 320 W/m² -
1788652947 22.22° C 32% 1016 hPa 0 mm - 334 W/m² -
1788652641 22.22° C 31% 1015.8 hPa 0 mm - 355 W/m² -
1788652336 22.22° C 31% 1015.9 hPa 0 mm - 379 W/m² -
1788652032 22.22° C 30% 1015.9 hPa 0 mm - 397 W/m² -
1788651727 22.78° C 29% 1015.6 hPa 0 mm - 407 W/m² -
1788651422 22.22° C 31% 1015.8 hPa 0 mm - 417 W/m² -
1788651121 22.22° C 31% 1015.8 hPa 0 mm - 429 W/m² -
1788650816 22.78° C 30% 1015.5 hPa 0 mm - 432 W/m² -
1788650512 22.78° C 29% 1015.6 hPa 0 mm - 453 W/m² -
1788650208 22.78° C 31% 1015.6 hPa 0 mm - 464 W/m² -
1788649903 22.78° C 29% 1015.6 hPa 0 mm - 478 W/m² -
1788649599 22.78° C 28% 1015.8 hPa 0 mm - 481 W/m² -
1788649297 22.78° C 28% 1016 hPa 0 mm - 485 W/m² -
1788648996 22.78° C 29% 1015.8 hPa 0 mm - 511 W/m² -
1788648691 22.78° C 29% 1015.8 hPa 0 mm - 509 W/m² -

* Rain latest hour (hover to see other rain measurements)
** Current wind speed in m/s (hover to see current wind gust speed)